Location: Biltmore Gardens
(41.6070°N, 83.4666°W)
Time: 09:41:24
(UTC+00:00)

Cosmos 2344 - Pass Details

Date: 28 October 2020
Orbit: 1246 x 2997 km, 63.3° (Epoch: 03 December)

Event Time Altitude Azimuth Distance (km) Brightness Sun altitude
Exits shadow 11:17:44 - 297° (WNW) 3,370 5.2 -8.8°
Reaches altitude 10° 11:18:14 10° 300° (WNW) 3,263 5.1 -8.7°
Maximum altitude 11:23:34 19° 345° (NNW) 2,759 5.1 -7.7°
Drops below altitude 10° 11:29:31 10° 29° (NNE) 3,707 6.3 -6.6°
Sets 11:34:09 0° 46° (NE) 4,969 7.2 -5.8°
